#timestamp,LO_Frequency,Hit,StdDev 
1560117615.6,286046998.8,N
1560117635.5,286046998.9,N
1560117655.3,286046999.3,N
1560117675.1,286047000.6,N
1560117695.9,286046998.2,N
1560117715.7,286046998.9,N
1560117735.6,286046998.5,N
1560117755.4,286046997.2,N
1560117775.2,286046997.5,N
1560117795.1,286046997.6,N
1560117796.0,286046997.6,N
1560117815.8,286046997.1,N
1560117835.6,286046998.6,N
1560117855.5,286046996.5,N
1560117875.3,286046998.3,N
1560117895.2,286047000.8,N
1560117915.9,286047000.3,N
1560117935.7,286047001.1,N
1560117955.6,286046997.0,N
1560117975.4,286046997.0,N
1560117995.2,286046997.8,N
1560118015.1,286046995.4,Y
1560118016.0,286046995.4,P
1560118035.8,286046997.1,N
1560118055.7,286046999.2,N
1560118075.5,286046998.8,N
1560118095.3,286046998.3,N
1560118115.2,286047000.5,N
1560118135.0,286047000.7,N
1560118135.9,286047000.7,N
1560118155.8,286047001.0,N
1560118175.6,286047002.2,N
1560118195.4,286047002.7,N
1560118215.3,286047000.8,N
1560118235.1,286046998.2,N
1560118255.8,286047000.9,N
1560118275.7,286046999.9,N
1560118295.5,286047002.7,N
1560118315.3,286047001.5,N
1560118335.2,286047004.3,N
1560118355.0,286047002.5,N
1560118355.9,286047002.5,N
1560118375.8,286047001.7,N
1560118395.6,286047002.6,N
1560118415.4,286047000.1,N
1560118435.3,286047002.0,N
1560118455.1,286047004.0,N
1560118475.8,286047004.2,N
1560118495.7,286047001.6,N
1560118515.5,286047002.0,N
1560118535.4,286047001.0,N
1560118555.2,286047002.5,N
1560118575.0,286047002.5,N
1560118575.9,286047002.5,N
1560118595.8,286047002.3,N
1560118615.6,286047003.2,N
1560118635.4,286047006.0,Y
1560118655.3,286047003.4,P
1560118675.1,286047005.4,P
1560118695.9,286047005.9,P
1560118715.7,286047005.5,Y
1560118735.5,286046999.8,P
1560118755.4,286047001.1,N
1560118775.2,286046998.9,N
1560118795.0,286046999.4,N
1560118795.9,286046999.4,N
1560118815.8,286046999.5,N
1560118835.6,286046998.3,N
1560118855.5,286046996.5,N
1560118875.3,286046997.7,N
1560118895.1,286046995.1,N
1560118915.9,286046995.4,N
1560118935.7,286046998.0,N
1560118955.5,286046995.8,N
1560118975.4,286046993.3,N
1560118995.2,286046993.8,N
1560119015.1,286046992.3,N
1560119016.0,286046992.3,N
1560119035.8,286046991.7,N
1560119055.6,286046993.5,N
1560119075.5,286046993.4,N
1560119095.3,286046995.4,N
1560119115.1,286046993.5,N
1560119135.9,286046994.0,N
1560119155.7,286046993.7,N
1560119175.6,286046991.7,N
1560119195.4,286046991.9,N
1560119215.2,286046994.1,N
1560119235.1,286046991.7,N
1560119236.0,286046991.7,N
1560119255.8,286046992.3,N
1560119275.7,286046992.1,N
1560119295.5,286046990.2,Y
1560119315.3,286046994.9,P
1560119335.2,286046997.5,P
1560119355.0,286046996.0,P
1560119355.9,286046996.0,Y
1560119375.7,286047000.5,P
1560119395.6,286047002.2,N
1560119415.4,286047001.8,N
1560119435.3,286047001.5,N
1560119485.1,286047004.3,E
1560119495.0,286047002.8,N
1560119496.0,286047002.8,P
1560119515.8,286047001.2,P
1560119535.6,286047001.2,N
1560119555.5,286047001.0,N
1560119575.3,286046999.0,N
1560119595.1,286046998.3,N
1560119615.9,286046998.7,N
1560119635.7,286046998.7,N
1560119655.5,286046998.7,N
1560119675.4,286047002.7,N
1560119695.2,286047001.0,N
1560119715.1,286046998.6,N
1560119716.0,286046998.6,N
1560119735.8,286046997.7,N
1560119755.6,286046995.6,N
1560119775.5,286046995.6,N
1560119795.3,286046998.0,N
1560119815.2,286046996.7,N
1560119835.9,286046997.8,N
1560119855.7,286046995.0,N
1560119875.6,286046993.4,N
1560119895.4,286046995.4,N
1560119915.2,286046999.4,N
1560119935.1,286046997.5,N
1560119936.0,286046997.5,N
1560119955.8,286046997.6,N
1560119975.7,286046996.7,N
1560119995.5,286046996.6,N
1560120015.3,286046998.9,N
1560120035.2,286047001.2,N
1560120055.0,286046997.9,N
1560120055.9,286046997.9,N
1560120075.8,286046993.7,Y
1560120095.6,286046997.3,P
1560120115.4,286046997.4,P
1560120135.3,286046995.0,P
1560120155.1,286046995.7,Y
1560120175.9,286046999.2,P
1560120195.7,286046998.7,N
1560120215.5,286046999.1,N
1560120235.4,286046998.7,N
1560120255.2,286046998.2,N
1560120275.0,286047000.7,N
1560120275.9,286047000.7,N
1560120295.8,286047000.7,N
1560120315.6,286047000.6,N
1560120335.5,286046999.3,N
1560120355.3,286046998.7,N
1560120375.1,286046999.3,N
1560120395.9,286047000.8,N
1560120415.7,286047000.7,N
1560120435.6,286047001.0,N
1560120455.4,286046998.2,N
1560120475.2,286047000.9,N
1560120495.1,286047000.0,N
1560120496.0,286047000.0,N
1560120515.8,286047002.8,N
1560120535.6,286047001.4,N
1560120555.5,286047002.4,N
1560120575.3,286047000.6,N
1560120595.2,286047000.0,N
1560120615.9,286047002.5,N
1560120635.7,286047002.6,N
1560120655.6,286047001.9,N
1560120675.4,286047000.5,N
1560120695.2,286047000.9,N
1560120715.1,286047001.7,N
1560120716.0,286047001.7,N
1560120735.8,286047004.1,Y
1560120755.7,286047001.9,P
1560120775.5,286047003.8,P
1560120795.3,286047001.5,N
1560120815.2,286046999.8,N
1560120835.0,286047001.9,N
1560120835.9,286047001.9,N
1560120855.7,286047002.8,N
1560120875.6,286047003.8,Y
1560120895.4,286047001.0,P
1560120915.3,286046998.2,P
1560120935.1,286046999.8,N
1560120936.0,286046999.8,N
1560120955.8,286047000.2,N
1560120975.7,286047002.5,N
1560120995.5,286047000.0,N
1560121015.3,286046999.9,N
1560121035.2,286047001.6,N
1560121055.0,286047001.5,N
1560121055.9,286047001.5,N
1560121075.8,286047002.4,N
1560121095.6,286047000.1,N
1560121115.4,286047001.4,N
1560121135.3,286047002.6,N
1560121155.1,286047002.4,N
1560121175.8,286047001.1,N
1560121195.7,286046999.5,N
